This demonstration page uses our WeatherBlox Daily Observations layout. Learn more.

Left ArrowRight Arrow

Hourly Observations for April 24, 2022

Temp ( °F °C ) Dew Point ( °F °C ) Humidity (%) Winds ( mph kmh ) Pressure ( in mb ) Visibility ( mi km ) Precip ( " mm )
12:52 am 00:52 Mostly Cloudy 70 21.1 57 13.9 64 64 SSE 14 22 29.78 1008 10 16 0.00 0.00
1:52 am 01:52 Mostly Cloudy 69 20.6 57 13.9 66 66 S 14 22 29.80 1009 10 16 0.00 0.00
2:52 am 02:52 Cloudy 70 21.1 57 13.9 64 64 S 9 15 29.78 1009 10 16 0.00 0.00
3:52 am 03:52 Mostly Clear 69 20.6 56 13.3 63 63 S 16 26 29.77 1008 10 16 0.00 0.00
4:52 am 04:52 Mostly Clear 69 20.6 56 13.3 63 63 S 18 30 29.78 1009 10 16 0.00 0.00
5:52 am 05:52 Mostly Cloudy with Light Rain 64 17.8 59 15 84 84 S 20 31 29.80 1009 10 16 0.05 1.27
6:52 am 06:52 Cloudy with Light Rain 63 17.2 60 15.6 90 90 SSW 10 17 29.84 1011 10 16 0.06 1.52
7:44 am 07:44 Cloudy 63 17.2 60 15.6 90 90 SSW 6 9 29.86 1011 10 16 0.00 0.00
7:52 am 07:52 Cloudy 63 17.2 60 15.6 90 90 SSW 8 13 29.86 1011 10 16 0.00 0.00
8:23 am 08:23 Cloudy 63 17.2 60 15.6 90 90 SSW 10 17 29.88 1012 10 16 0.00 0.00
8:52 am 08:52 Cloudy 63 17.2 60 15.6 90 90 SSW 9 15 29.87 1012 10 16 0.00 0.00
9:52 am 09:52 Cloudy 65 18.3 60 15.6 84 84 SSW 12 19 29.87 1012 10 16 0.00 0.00
10:33 am 10:33 Cloudy 60 15.6 58 14.4 93 93 NW 5 7 29.89 1012 10 16 0.00 0.00
10:52 am 10:52 Cloudy 60 15.6 58 14.4 93 93 WNW 7 11 29.89 1012 10 16 0.00 0.00
11:08 am 11:08 Cloudy 58 14.4 55 12.8 90 90 NW 7 11 29.91 1013 10 16 0.00 0.00
11:52 am 11:52 Cloudy 56 13.3 54 12.2 93 93 NW 6 9 29.92 1013 10 16 0.00 0.00
12:18 pm 12:18 Cloudy with Light Rain 56 13.3 54 12.2 93 93 WNW 8 13 29.95 1014 7 11 0.00 0.00
12:52 pm 12:52 Cloudy 57 13.9 55 12.8 93 93 NW 8 13 29.93 1013 10 16 0.00 0.00
1:52 pm 13:52 Cloudy 56 13.3 55 12.8 97 97 NNW 3 6 29.93 1014 9 14 0.00 0.00
2:52 pm 14:52 Cloudy 57 13.9 55 12.8 93 93 NW 7 11 29.94 1014 10 16 0.00 0.00
3:52 pm 15:52 Cloudy 55 12.8 54 12.2 96 96 NNW 6 9 29.95 1014 9 14 0.02 0.51
4:41 pm 16:41 Cloudy with Mist and Fog 54 12.2 53 11.7 97 97 WNW 6 9 29.99 1016 6 10 0.01 0.25
4:52 pm 16:52 Cloudy with Rain 53 11.7 53 11.7 100 100 WNW 12 19 29.98 1015 3 5 0.02 0.51
5:01 pm 17:01 Cloudy with Heavy Rain 53 11.7 52 11.1 96 96 NW 14 22 29.99 1016 2 3 0.04 1.02
5:12 pm 17:12 Cloudy with Rain 52 11.1 52 11.1 100 100 NNW 8 13 29.99 1015 4 6 0.09 2.29
5:23 pm 17:23 Cloudy with Light Rain 52 11.1 52 11.1 100 100 NW 8 13 30.00 1016 6 10 0.10 2.54
5:40 pm 17:40 Cloudy with Light Rain 53 11.7 52 11.1 96 96 NNW 6 9 29.98 1015 10 16 0.11 2.79
5:52 pm 17:52 Cloudy with Light Rain 53 11.7 52 11.1 96 96 NNE 3 6 29.96 1015 10 16 0.11 2.79
6:52 pm 18:52 Cloudy 53 11.7 52 11.1 96 96 NE 3 6 29.96 1015 10 16 0.01 0.25
7:52 pm 19:52 Cloudy 54 12.2 53 11.7 97 97 ESE 3 6 29.97 1015 10 16 0.00 0.00
8:52 pm 20:52 Cloudy with Rain 54 12.2 53 11.7 97 97 W 6 9 30.00 1016 5 8 0.02 0.51
8:58 pm 20:58 Cloudy with Heavy Rain 54 12.2 53 11.7 97 97 Calm 30.00 1016 2 2 0.02 0.51
9:14 pm 21:14 Cloudy with Heavy Rain 53 11.7 52 11.1 96 96 VRB 3 6 30.00 1016 3 4 0.25 6.35
9:39 pm 21:39 Cloudy with Heavy Rain 53 11.7 51 10.6 93 93 SW 8 13 30.05 1018 3 5 0.53 13.46
9:52 pm 21:52 Cloudy with Rain 53 11.7 52 11.1 96 96 Calm 30.03 1017 5 8 0.60 15.24
10:52 pm 22:52 Cloudy with Rain 52 11.1 51 10.6 97 97 NE 8 13 30.01 1016 5 8 0.18 4.57
11:52 pm 23:52 Cloudy 53 11.7 51 10.6 93 93 NNE 6 9 30.02 1017 10 16 0.02 0.51

Powered by AerisWeather